Back to catalog

USA 430

AliveMilitaryVLEO
NORAD 61653·PAYLOAD·🇺🇸 United States

Launched Oct 24, 2024 from Vandenberg Space Force Base

Loading…

Next Passes (next 24 hours)

TLE

StaleSource: Mike McCants

Epoch: Aug 12, 2026, 20:23 UTC

1 61653U 24192K   26224.84937067 0.00000000  00000-0  00000-0 0    02
2 61653  70.0223 124.5852 0003000 170.6993 189.3007 14.96713560    02

Track USA 430 in real time with AllMySat

Download on the App Store